This demonstration page uses our WeatherBlox Daily Observations layout. Learn more.

Left ArrowRight Arrow

Hourly Observations for August 26, 2020

Temp ( °F °C ) Dew Point ( °F °C ) Humidity (%) Winds ( mph kmh ) Pressure ( in mb ) Visibility ( mi km ) Precip ( " mm )
12:53 am 00:53 Cloudy with Mist and Fog 71 21.7 70 21.1 96 96 N N/A 30.09 1019 5 8.0467 N/A
1:53 am 01:53 Clear with Mist and Fog 70 21.1 69 20.6 97 97 N N/A 30.07 1018 3 4.82802 N/A
2:53 am 02:53 Clear with Mist and Fog 69 20.6 68 20 96 96 N N/A 30.06 1018 5 8.0467 N/A
3:53 am 03:53 Clear with Mist and Fog 69 20.6 68 20 96 96 N N/A 30.05 1018 4 6.43736 N/A
4:53 am 04:53 Clear with Mist and Fog 68 20 67 19.4 96 96 N N/A 30.05 1018 5 8.0467 N/A
5:35 am 05:35 Clear with Mist and Fog 68 20 67 19.4 96 96 N N/A 30.06 1018 2.5 4.02335 N/A
5:53 am 05:53 Clear with Light Rain 68 20 67 19.4 96 96 N N/A 30.06 1018 4 6.43736 0.001 0.001
6:16 am 06:16 Clear with Mist and Fog 68 20 67 19.4 96 96 N N/A 30.07 1018 2.5 4.02335 0.001 0.001
6:40 am 06:40 Mostly Clear with Mist and Fog 68 20 67 19.4 96 96 N N/A 30.07 1018 6 9.65604 0.001 0.001
6:53 am 06:53 Mostly Clear with Mist and Fog 68 20 67 19.4 96 96 N N/A 30.07 1018 2.5 4.02335 0.001 0.001
7:05 am 07:05 Partly Cloudy with Mist and Fog 68 20 67 19.4 96 96 N N/A 30.07 1018 1.5 2.41401 N/A
7:13 am 07:13 Sunny with Mist and Fog 68 20 67 19.4 96 96 N N/A 30.07 1018 2 3.21868 N/A
7:16 am 07:16 Sunny with Mist and Fog 68 20 67 19.4 96 96 N N/A 30.07 1018 1.5 2.41401 N/A
7:28 am 07:28 Sunny with Mist and Fog 68 20 67 19.4 96 96 N N/A 30.08 1018 3 4.82802 N/A
7:37 am 07:37 Sunny with Mist and Fog 68 20 67 19.4 96 96 N N/A 30.08 1018 1.75 2.816345 N/A
7:48 am 07:48 Sunny with Mist and Fog 70 21 68 20 94 94 N N/A 30.07 1018 2.5 4.02335 N/A
7:53 am 07:53 Sunny with Mist and Fog 69 20.6 68 20 96 96 N N/A 30.07 1018 3 4.82802 N/A
8:53 am 08:53 Sunny with Mist and Fog 75 23.9 72 22.2 90 90 N N/A 30.07 1018 6 9.65604 N/A
9:53 am 09:53 Sunny 79 26.1 73 22.8 82 82 VRB 5 7 30.08 1019 8 12.87472 N/A
10:53 am 10:53 Sunny 83 28.3 73 22.8 72 72 W 5 7 30.09 1019 10 16.0934 N/A
11:53 am 11:53 Sunny 86 30 75 23.9 70 70 VRB 5 7 30.09 1019 10 16.0934 N/A
12:53 pm 12:53 Sunny 87 30.6 73 22.8 63 63 VRB 6 9 30.07 1018 10 16.0934 N/A
1:53 pm 13:53 Partly Cloudy 89 31.7 73 22.8 59 59 VRB 3 6 30.06 1018 10 16.0934 N/A
2:53 pm 14:53 Sunny 88 31.1 71 21.7 57 57 WSW 8 13 30.04 1017 10 16.0934 N/A
3:53 pm 15:53 Partly Cloudy 89 31.7 70 21.1 53 53 W 9 15 30.02 1017 10 16.0934 N/A
4:53 pm 16:53 Mostly Sunny 89 31.7 72 22.2 57 57 VRB 5 7 30 1016 10 16.0934 N/A
5:53 pm 17:53 Mostly Sunny 88 31.1 72 22.2 59 59 SW 8 13 29.99 1016 10 16.0934 N/A
6:53 pm 18:53 Sunny 86 30 72 22.2 63 63 VRB 6 9 29.98 1015 10 16.0934 N/A
7:53 pm 19:53 Mostly Sunny 84 28.9 72 22.2 67 67 VRB 5 7 29.98 1015 10 16.0934 N/A
8:53 pm 20:53 Clear 80 26.7 72 22.2 76 76 N N/A 29.98 1015 10 16.0934 N/A
9:53 pm 21:53 Clear 77 25 71 21.7 82 82 N N/A 29.98 1015 10 16.0934 N/A
10:53 pm 22:53 Clear 74 23.3 72 22.2 94 94 N N/A 29.98 1015 10 16.0934 N/A
11:53 pm 23:53 Clear 74 23.3 72 22.2 94 94 N N/A 29.98 1015 10 16.0934 N/A

Powered by AerisWeather